[[{"header":{"parameterUnit":"m.s-1","parameterCategory":1,"la1":30.2991,"la2":30.254,"lo1":-89.0895,"lo2":-89.0444,"dy":0.0017,"dx":0.0017,"nx":28,"ny":28,"refTime":"2025-06-16T21:00:00:Z","depth":0,"parameterNumber":2,"parameterNumberName":"U-component_of_WINDS"},"data":[0,0,0,0,0,0,0,0,0,0,0,0,0,0,0,0,0,0,0,0,0,0,0,0,0,0,0,0,0,0,0,0,0,0,0,0,0,0,0,0,0,0,0,0,0,0,0,0,0,0,0,0,0,0,0,0,0,0,3.3615,3.3617,0,3.3799,3.3801,3.3803,3.387,3.3869,3.3869,3.3868,3.4053,3.4058,3.4064,0,0,0,0,0,0,0,0,0,0,0,0,0,3.332,3.3325,3.3615,3.3618,3.362,3.3798,3.3801,3.3803,3.387,3.3869,3.3868,3.3868,3.4051,3.4058,3.4064,0,0,0,0,0,0,0,0,0,0,0,0,0,3.347,3.3327,3.3615,3.3675,3.3682,3.3798,3.3801,3.3804,3.387,3.3869,3.3868,3.3867,3.4049,3.4057,3.4065,3.4134,0,0,3.409,3.4094,0,0,0,0,0,0,0,0,3.3461,3.3481,3.3664,3.3671,3.3679,3.3811,3.3765,3.3915,3.387,3.3799,3.3868,3.3867,3.3973,3.3987,3.4024,3.4143,3.4151,3.4091,3.4096,3.4099,3.4102,0,0,0,0,0,0,0,3.3451,3.3473,3.3688,3.3666,3.3676,3.3691,3.3712,3.3793,3.3888,3.3805,3.381,3.3831,3.3977,3.4015,3.4028,3.4153,3.4091,3.4098,3.4103,3.4106,3.4338,3.4339,0,0,0,0,0,0,3.3431,3.3464,3.3682,3.3693,3.3566,3.3697,3.372,3.3769,3.3888,3.3905,3.3832,3.3833,3.4002,3.4019,3.4035,3.4123,3.4099,3.4107,3.4112,3.4336,3.4338,3.4339,0,0,0,0,0,0,3.3424,3.345,3.3675,3.358,3.361,3.3704,3.3758,3.3773,3.3812,3.3908,3.3925,3.3854,3.4002,3.4024,3.4109,3.4131,3.4111,3.4118,3.4335,3.4337,3.4339,3.43,0,0,0,0,0,0,3.3416,3.3447,3.3475,3.358,3.3615,3.3746,3.3759,3.3778,3.3826,3.3831,3.3933,3.395,3.4003,3.4096,3.4117,3.4142,3.4125,3.4334,3.4336,3.4338,3.43,3.43,3.4301,0,0,0,0,0,3.3405,3.3456,3.3476,3.3502,3.3652,3.3747,3.3767,3.3828,3.3828,3.3856,3.3918,3.3946,3.4125,3.4105,3.4129,3.4156,3.4332,3.4335,3.4338,3.43,3.43,3.4301,0,0,0,0,0,0,3.335,3.3471,3.3494,3.3582,3.3654,3.3758,3.3796,3.3827,3.39,3.39,3.3972,3.3995,3.4074,3.4124,3.4099,3.4228,3.423,3.4238,3.4193,3.4195,3.4195,3.4181,3.4132,0,0,0,0,0,3.3348,3.3416,3.3518,3.3585,3.3621,3.3702,3.3746,3.3787,3.3864,3.3894,3.3962,3.4035,3.4108,3.4154,3.4226,3.4308,3.433,3.4338,3.4338,3.4338,3.4344,3.439,3.4394,3.4348,3.4348,3.4348,0,0,3.3344,3.3419,3.3458,3.3576,3.3637,3.3705,3.3727,3.3798,3.3849,3.3905,3.399,3.4042,3.4128,3.4212,3.4252,3.4255,3.4362,3.4342,3.4341,3.4347,3.4393,3.4397,3.4401,3.435,3.435,3.4349,0,0,3.3373,3.3437,3.35,3.356,3.3652,3.3706,3.3721,3.3821,3.3858,3.3945,3.3988,3.4049,3.4173,3.4232,3.4279,3.4329,3.4358,3.4351,3.4353,3.4397,3.4401,3.4404,3.4422,3.4427,3.4356,3.4356,3.4356,0,3.3357,3.3463,3.3528,3.3597,3.3647,3.3702,3.3765,3.382,3.3931,3.3964,3.3966,3.4123,3.4184,3.4282,3.4294,3.4331,3.4349,3.4339,3.4395,3.4399,3.4404,3.4421,3.4427,3.4355,3.4355,3.4355,3.4355,0,3.3438,3.351,3.355,3.3656,3.3711,3.3776,3.3851,3.3898,3.3934,3.3987,3.4074,3.415,3.4238,3.4265,3.43,3.4368,3.4367,3.4381,3.4385,3.4405,3.4423,3.443,3.4352,3.4353,3.4353,3.4354,0,0,3.3436,3.3578,3.3591,3.364,3.3745,3.3802,3.387,3.3957,3.3996,3.407,3.4128,3.4232,3.4246,3.4298,3.4341,3.438,3.4414,3.439,3.4393,3.4391,3.4492,3.448,3.4486,3.4434,3.4435,3.4437,3.4484,0,3.3478,3.3604,3.3664,3.3762,3.3829,3.3882,3.3941,3.4011,3.4062,3.4126,3.4182,3.4254,3.4268,3.43,3.434,3.4401,3.4435,3.4399,3.4487,3.449,3.4464,3.4496,3.4484,3.4525,3.4492,3.4493,3.4494,0,3.3544,3.3619,3.3724,3.3821,3.3852,3.3904,3.3988,3.4049,3.4129,3.4164,3.4222,3.4264,3.4336,3.4334,3.4434,3.4408,3.4448,3.4483,3.4486,3.4496,3.4492,3.4506,3.454,3.4546,3.4505,3.4504,3.4504,0,3.3532,3.3659,3.3738,3.3778,3.3894,3.3929,3.3978,3.4058,3.4106,3.418,3.4212,3.4292,3.4336,3.4397,3.4459,3.4452,3.4552,3.4556,3.4582,3.458,3.4601,3.4598,3.464,3.4627,3.4627,3.4627,3.4626,0,3.3572,3.3634,3.3734,3.3782,3.3853,3.3922,3.3989,3.4043,3.4113,3.4172,3.4222,3.4276,3.4354,3.4418,3.4466,3.4541,3.4561,3.459,3.4602,3.4585,3.4581,3.4612,3.461,3.4628,3.4628,3.4628,3.4627,0,3.357,3.364,3.3729,3.3832,3.3859,3.3906,3.3993,3.4042,3.4096,3.4169,3.4191,3.4275,3.4352,3.442,3.4522,3.4554,3.4631,3.4646,3.4604,3.461,3.4632,3.4629,3.4695,3.4707,3.4685,3.4685,3.4685,0,3.3591,3.364,3.3748,3.3792,3.3841,3.391,3.396,3.4029,3.4079,3.4174,3.4211,3.4292,3.436,3.4481,3.4551,3.4629,3.4646,3.4663,3.4658,3.4639,3.4645,3.4641,3.4646,3.4663,3.4663,3.4663,3.4663,0,3.3621,3.3653,3.3723,3.3806,3.3865,3.3933,3.4002,3.4035,3.4116,3.4169,3.425,3.4303,3.4407,3.4487,3.4572,3.4622,3.4656,3.4664,3.4674,3.4657,3.4631,3.4645,3.4603,3.4662,3.4662,3.4662,3.4662,3.4662,3.3631,3.3677,3.376,3.3837,3.3896,3.396,3.4011,3.4071,3.4139,3.423,3.4267,3.4348,3.4427,3.4545,3.4595,3.4659,3.4664,3.4679,3.4683,3.4685,3.4682,3.4621,3.4675,3.4675,3.4675,3.4675,3.4675,0,3.3662,3.3718,3.3789,3.3885,3.3945,3.3972,3.405,3.4099,3.417,3.4241,3.4308,3.4399,3.4476,3.4552,3.4633,3.4669,3.4687,3.4688,3.4686,3.4697,3.4673,3.4656,3.4673,3.4673,3.4673,3.4673,3.4673,3.4673,3.3686,3.3765,3.3806,3.3915,3.3971,3.4052,3.4094,3.4152,3.4209,3.431,3.4375,3.4424,3.4496,3.4583,3.4654,3.4675,3.4702,3.4699,3.4723,3.4699,3.4698,3.4698,3.4682,3.4704,3.4704,3.4742,3.4742,3.4742]},{"header":{"parameterUnit":"m.s-1","parameterCategory":1,"la1":30.2991,"la2":30.254,"lo1":-89.0895,"lo2":-89.0444,"dy":0.0017,"dx":0.0017,"nx":28,"ny":28,"refTime":"2025-06-16T21:00:00:Z","depth":0,"parameterNumber":3,"parameterNumberName":"V-component_of_WINDS"},"data":[0,0,0,0,0,0,0,0,0,0,0,0,0,0,0,0,0,0,0,0,0,0,0,0,0,0,0,0,0,0,0,0,0,0,0,0,0,0,0,0,0,0,0,0,0,0,0,0,0,0,0,0,0,0,0,0,0,0,5.2002,5.2002,0,5.2044,5.2044,5.2045,5.2027,5.2026,5.2026,5.2025,5.2062,5.2064,5.2066,0,0,0,0,0,0,0,0,0,0,0,0,0,5.19,5.1902,5.2001,5.2002,5.2003,5.2044,5.2044,5.2045,5.2028,5.2026,5.2025,5.2024,5.2062,5.2064,5.2066,0,0,0,0,0,0,0,0,0,0,0,0,0,5.1943,5.1903,5.2001,5.1999,5.1999,5.2044,5.2044,5.2045,5.2028,5.2026,5.2025,5.2024,5.2061,5.2064,5.2067,5.2114,0,0,5.2075,5.2077,0,0,0,0,0,0,0,0,5.1941,5.1947,5.1999,5.1999,5.2,5.2029,5.2022,5.2068,5.2028,5.2017,5.2025,5.2023,5.2052,5.2056,5.2067,5.2116,5.2117,5.2076,5.2077,5.2079,5.2079,0,0,0,0,0,0,0,5.1938,5.1945,5.2018,5.2,5.2,5.1994,5.1998,5.2031,5.2042,5.2018,5.2017,5.2022,5.2052,5.2064,5.2067,5.2118,5.2075,5.2078,5.208,5.2081,5.2207,5.2208,0,0,0,0,0,0,5.1935,5.1943,5.2017,5.2019,5.1966,5.1997,5.2002,5.2021,5.2042,5.2044,5.2023,5.2021,5.206,5.2064,5.2068,5.2125,5.2079,5.2081,5.2083,5.2205,5.2207,5.2209,0,0,0,0,0,0,5.1933,5.1942,5.2015,5.1981,5.199,5.2,5.2022,5.2023,5.2035,5.2046,5.2047,5.2034,5.2059,5.2064,5.2103,5.2126,5.2083,5.2085,5.2203,5.2206,5.2208,5.2239,0,0,0,0,0,0,5.1931,5.1942,5.1961,5.1981,5.1991,5.2051,5.2023,5.2024,5.204,5.2038,5.2056,5.2058,5.2058,5.2099,5.2106,5.2129,5.2087,5.2201,5.2204,5.2207,5.2236,5.2242,5.2247,0,0,0,0,0,5.1927,5.1967,5.1962,5.1971,5.2016,5.2052,5.2058,5.2059,5.2042,5.2061,5.2068,5.2057,5.2122,5.2103,5.2111,5.2135,5.22,5.2204,5.2207,5.2233,5.2241,5.2247,0,0,0,0,0,0,5.1947,5.197,5.1965,5.2013,5.2031,5.2049,5.2073,5.2067,5.2088,5.2085,5.2083,5.2087,5.2127,5.2135,5.2113,5.2182,5.2158,5.2164,5.2176,5.2183,5.2189,5.2186,5.209,0,0,0,0,0,5.1958,5.1987,5.2004,5.2044,5.2054,5.2062,5.2077,5.2077,5.2095,5.2102,5.2112,5.2128,5.2152,5.2168,5.219,5.2237,5.224,5.2257,5.2263,5.2268,5.2272,5.2297,5.2305,5.2221,5.2221,5.2221,0,0,5.1979,5.1995,5.2013,5.2049,5.2063,5.2091,5.2068,5.2099,5.212,5.2106,5.2143,5.2151,5.2169,5.2211,5.223,5.2219,5.2296,5.2272,5.2276,5.2278,5.2301,5.2309,5.2316,5.2223,5.2223,5.2223,0,0,5.2032,5.2047,5.2083,5.2098,5.212,5.2125,5.2133,5.2153,5.2158,5.2196,5.2186,5.2209,5.2251,5.2264,5.2276,5.2334,5.2324,5.2341,5.2371,5.2395,5.2401,5.2407,5.2428,5.2435,5.2345,5.2345,5.2346,0,5.2055,5.21,5.2101,5.2134,5.2149,5.214,5.2175,5.2188,5.2216,5.2226,5.2213,5.2265,5.2276,5.2322,5.2336,5.2346,5.2355,5.2339,5.2401,5.2407,5.2412,5.2431,5.2439,5.2347,5.2347,5.2347,5.2347,0,5.2126,5.2157,5.2183,5.2212,5.223,5.2263,5.2269,5.2287,5.2284,5.229,5.2328,5.2341,5.2367,5.2377,5.2374,5.2422,5.2414,5.2401,5.2377,5.2422,5.244,5.2447,5.235,5.2349,5.2349,5.2348,0,0,5.2194,5.2224,5.2233,5.2246,5.227,5.2293,5.2324,5.2351,5.2366,5.2385,5.2411,5.2447,5.2435,5.2449,5.2447,5.2468,5.2512,5.2452,5.2452,5.2463,5.2565,5.2575,5.2584,5.2506,5.2508,5.2509,5.2564,0,5.2249,5.2308,5.231,5.2363,5.2391,5.2381,5.2409,5.2425,5.2431,5.2454,5.246,5.2485,5.2468,5.2476,5.2496,5.2503,5.2533,5.2499,5.2529,5.253,5.2525,5.2593,5.2604,5.2655,5.2571,5.2572,5.2573,0,5.2321,5.2344,5.2401,5.242,5.2432,5.2457,5.2481,5.2504,5.2521,5.2524,5.254,5.2535,5.2565,5.2541,5.2583,5.256,5.2572,5.2577,5.2579,5.2582,5.2554,5.2598,5.2671,5.2679,5.2584,5.2583,5.2582,0,5.2364,5.241,5.2449,5.246,5.2484,5.2502,5.2512,5.2529,5.2544,5.2565,5.2575,5.2598,5.261,5.2627,5.2628,5.261,5.267,5.2646,5.2672,5.2672,5.2685,5.2684,5.2762,5.2693,5.2693,5.2693,5.2693,0,5.2426,5.246,5.2469,5.2493,5.2531,5.2533,5.257,5.2578,5.2593,5.2617,5.261,5.2632,5.2632,5.2654,5.2655,5.2689,5.2695,5.2697,5.2697,5.2698,5.2698,5.2706,5.2702,5.2695,5.2695,5.2694,5.2694,0,5.2481,5.2488,5.2531,5.255,5.2556,5.2583,5.2598,5.262,5.2626,5.2656,5.2664,5.2671,5.2697,5.27,5.273,5.273,5.2772,5.2767,5.2766,5.2766,5.2792,5.279,5.2878,5.2889,5.2813,5.2813,5.2814,0,5.2519,5.2546,5.2569,5.2586,5.2598,5.2624,5.2641,5.2643,5.266,5.2682,5.2701,5.2727,5.2748,5.2789,5.2796,5.2819,5.2815,5.2844,5.2818,5.2818,5.2815,5.2814,5.2816,5.2849,5.285,5.2851,5.2851,0,5.2587,5.259,5.2615,5.2641,5.2662,5.2682,5.2701,5.2714,5.2718,5.2738,5.2765,5.2782,5.2813,5.2838,5.286,5.2868,5.286,5.286,5.2867,5.2868,5.2867,5.2868,5.278,5.2858,5.2857,5.2856,5.2856,5.2856,5.2635,5.2658,5.2678,5.2706,5.2721,5.2739,5.2761,5.277,5.2794,5.2821,5.2819,5.285,5.2865,5.2895,5.2905,5.2927,5.2917,5.2928,5.2931,5.2933,5.2936,5.2863,5.2931,5.2931,5.2931,5.2931,5.2931,0,5.2702,5.2715,5.2741,5.2769,5.279,5.2783,5.2803,5.2821,5.2849,5.2865,5.2886,5.2917,5.2942,5.2951,5.2974,5.2991,5.2987,5.2997,5.2995,5.2997,5.2944,5.2935,5.2999,5.2999,5.2999,5.2999,5.2999,5.2999,5.274,5.2779,5.2784,5.283,5.2841,5.2872,5.2885,5.2901,5.2914,5.295,5.2971,5.2978,5.2991,5.3015,5.3037,5.3038,5.3047,5.3058,5.3058,5.3008,5.3001,5.2995,5.2987,5.306,5.306,5.311,5.3111,5.3111]}]]